Location: Casilda
(33.0440°S, 61.1680°W)
Time: 16:06:59
(UTC-03:00)

ISS - Pass Details

Date: 10 December 2017
Orbit: 402 x 407 km, 51.6° (Epoch: 11 December)

Event Time Altitude Azimuth Distance (km) Brightness Sun altitude
Exits shadow 03:19:11 14° 209° (SSW) 1,281 -1.0 -24.6°
Drops below altitude 10° 03:20:51 10° 178° (S) 1,482 -0.3 -24.4°
Sets 03:23:47 0° 150° (SSE) 2,350 1.4 -24.0°
